Location: Murdochville
(48.9591°N, 65.4950°W)
Time: 22:59:27
(UTC-04:00)

Envisat - Pass Details

Date: 22 April 2026
Orbit: 761 x 762 km, 98.4° (Epoch: 15 May)

Event Time Altitude Azimuth Distance (km) Brightness Sun altitude
Rises 02:51:32 0° 16° (NNE) 3,235 7.4 -20.3°
Reaches altitude 10° 02:53:53 10° 20° (NNE) 2,305 6.5 -20.1°
Maximum altitude 02:58:55 62° 101° (ESE) 856 3.3 -19.6°
Enters shadow 03:01:48 25° 175° (S) 1,500 4.1 -19.2°
